Location: Newark
(44.0160°N, 116.9215°W)
Time: 16:42:24
(UTC+00:00)

Envisat - Pass Details

Date: 25 November 2019
Orbit: 764 x 766 km, 98.1° (Epoch: 14 December)

Event Time Altitude Azimuth Distance (km) Brightness Sun altitude
Rises 13:57:33 0° 22° (NNE) 3,241 6.3 -10.3°
Reaches altitude 10° 14:00:05 10° 31° (NNE) 2,310 5.6 -9.9°
Maximum altitude 14:04:40 33° 96° (E) 1,257 5.0 -9.1°
Drops below altitude 10° 14:09:14 10° 160° (SSE) 2,294 6.1 -8.3°
Sets 14:11:43 0° 170° (S) 3,215 6.7 -7.9°
